Location: ????
(32.1228°N, 34.8377°E)
Time: 16:47:29
(UTC+00:00)

Cosmos 1238 Rocket - Pass Details

Date: 21 September 2020
Orbit: 374 x 1028 km, 83.0° (Epoch: 24 October)

Event Time Altitude Azimuth Distance (km) Brightness Sun altitude
Rises 01:15:07 0° 352° (N) 3,764 7.2 -28.4°
Reaches altitude 10° 01:17:47 10° 350° (N) 2,778 6.5 -27.9°
Maximum altitude 01:24:13 74° 267° (W) 966 3.7 -26.6°
Enters shadow 01:24:49 68° 222° (SW) 987 3.7 -26.5°
